Flag for U.S.A. Weather past 2 weeks in Abilene, Texas, U.S.A.

Now
98 °F

Scattered clouds.


Feels Like: 97 °F
Forecast: 73 / 97 °F
Wind: 5 mph from East

Location: Abilene Regional Airport

Current Time: Jul 31, 2015 at 5:19:19 PM

Latest Report: Jul 31, 2015 at 3:52 PM


Visibility: 10 mi

Pressure: 29.96 "Hg (28.27 "Hg at 524m altitude)

Humidity: 26%

Dew point: 58 °F

Location of AbileneLocation

Historic Weather in Abilene — Graph

°F

Abilene temperature yesterday

Maximum temperature yesterday: 100 °F (at 3:52 PM)
Minimum temperature yesterday: 75 °F (at 6:52 AM)
Average temperature yesterday: 87 °F

Past Weeks' High & Low Weather Summary

 TemperatureHumidityPressure
High100 °F (Jul 30, 3:52 PM)85% (Jul 18, 6:52 AM)30.08 "Hg (Jul 18, 6:52 AM)
Low73 °F (Jul 17, 6:52 AM)25% (Jul 31, 2:52 PM)29.74 "Hg (Jul 21, 6:52 PM)
Average86 °F53%29.88 "Hg
* Reported Jul 16 3:52 PM — Jul 31 3:52 PM, Abilene, Weather by CustomWeather, © 2015

Note: Actual official high and low records may vary slightly from our data, if they occured in-between our weather recording intervals... More about our weather records

Advertising

Abilene weather history for previous 24 hours

 ConditionsComfort  
Time TempWeatherWind HumidityBarometerVisibility
3:52 PM
Fri, Jul 31
98 °FScattered clouds.5 mph26%29.96 "Hg10 mi
2:52 PM98 °FPartly sunny.8 mph25%29.98 "Hg5 mi
1:52 PM99 °FSunny.5 mph27%30.00 "Hg10 mi
12:52 PM98 °FSunny.6 mph29%30.03 "Hg10 mi
11:52 AM97 °FSunny.5 mph29%30.04 "Hg10 mi
10:52 AM94 °FSunny.3 mph35%30.05 "Hg10 mi
9:52 AM88 °FSunny.3 mph42%30.05 "Hg10 mi
8:52 AM82 °FSunny.No wind56%30.05 "Hg10 mi
7:52 AM77 °FSunny.3 mph62%30.04 "Hg10 mi
6:52 AM76 °FClear.5 mph62%30.03 "Hg10 mi
5:52 AM76 °FClear.6 mph64%30.02 "Hg10 mi
4:52 AM77 °FClear.5 mph62%30.01 "Hg10 mi
3:52 AM77 °FClear.6 mph64%30.01 "Hg10 mi
2:52 AM76 °FClear.7 mph67%30.02 "Hg10 mi
1:52 AM77 °FClear.7 mph66%30.03 "Hg10 mi
12:52 AM79 °FClear.3 mph60%30.02 "Hg10 mi
11:52 PM
Thu, Jul 30
81 °FClear.5 mph56%30.02 "Hg10 mi
10:52 PM82 °FClear.6 mph55%30.02 "Hg10 mi
9:52 PM86 °FClear.9 mph46%29.99 "Hg10 mi
8:52 PM89 °FSunny.8 mph45%29.98 "Hg10 mi
7:52 PM94 °FSunny.9 mph38%29.96 "Hg10 mi
6:52 PM96 °FSunny.13 mph34%29.96 "Hg10 mi
5:52 PM94 °FSunny.10 mph40%29.97 "Hg10 mi
Weather by CustomWeather, © 2015

See weather overviewHow to use our weather pages